This demonstration page uses our WeatherBlox Daily Observations layout. Learn more.

Hourly Observations for February 13, 2015

Temp ( °F °C ) Dew Point ( °F °C ) Humidity (%) Winds ( mph kmh ) Pressure ( in mb ) Visibility ( mi km ) Precip ( " mm )
12:15 am 00:15 Clear 20 -6.5 11 -11.7 67 67 SSW 8 13 30.3 1026 10 16.0934 0 0
12:35 am 00:35 Clear 21 -6.3 11 -11.5 67 67 SSW 5 7 30.3 1026 10 16.0934 0 0
12:55 am 00:55 Clear 21 -6.3 12 -11.2 69 69 SW 5 7 30.3 1026 10 16.0934 0 0
1:15 am 01:15 Clear 21 -6.2 12 -11.1 69 69 SW 7 11 30.3 1026 10 16.0934 0 0
1:35 am 01:35 Clear 21 -6.2 12 -11 69 69 SW 6 9 30.3 1026 10 16.0934 0 0
1:55 am 01:55 Clear 21 -6.1 12 -11.1 68 68 SW 6 9 30.3 1026 10 16.0934 0 0
2:15 am 02:15 Clear 22 -5.8 12 -11 67 67 SW 7 11 30.3 1026 10 16.0934 0 0
2:35 am 02:35 Clear 22 -5.5 12 -11 66 66 WSW 6 9 30.27 1025 10 16.0934 0 0
2:55 am 02:55 Clear 22 -5.5 12 -11 66 66 W 9 15 30.27 1025 10 16.0934 0 0
3:15 am 03:15 Clear 22 -5.5 13 -10.7 67 67 W 6 9 30.27 1025 10 16.0934 0 0
3:35 am 03:35 Clear 22 -5.3 13 -10.6 67 67 W 6 9 30.27 1025 10 16.0934 0 0
3:50 am 03:50 Clear 23 -5 13 -10.5 66 66 W 6 9 30.27 1025 10 16.0934 0 0
4:15 am 04:15 Clear 23 -5.2 14 -10.2 68 68 W 7 11 30.27 1025 10 16.0934 0 0
4:35 am 04:35 Clear 23 -5 14 -9.8 69 69 W 7 11 30.27 1025 10 16.0934 0 0
4:55 am 04:55 Clear 25 -4.1 15 -9.3 67 67 W 8 13 30.27 1025 10 16.0934 0 0
5:15 am 05:15 Clear 25 -3.7 16 -9 67 67 WNW 7 11 30.27 1025 10 16.0934 0 0
5:30 am 05:30 Clear 25 -3.7 17 -8.5 70 70 WNW 7 11 30.27 1025 10 16.0934 0 0
5:50 am 05:50 Clear 25 -3.7 18 -8 72 72 WNW 8 13 30.27 1025 10 16.0934 0 0
6:15 am 06:15 Clear 26 -3.1 20 -6.7 76 76 WNW 8 13 30.27 1025 10 16.0934 0 0
6:35 am 06:35 Clear 28 -2.4 23 -5.1 82 82 NW 10 17 30.24 1024 10 16.0934 0 0
6:55 am 06:55 Clear 31 -0.6 24 -4.5 75 75 NW 8 13 30.24 1024 10 16.0934 0 0
7:15 am 07:15 Clear 31 -0.7 24 -4.3 77 77 WNW 9 15 30.24 1024 10 16.0934 0 0
7:35 am 07:35 Sunny 31 -0.7 24 -4.2 77 77 NW 7 11 30.24 1024 10 16.0934 0 0
7:50 am 07:50 Sunny 31 -0.6 25 -4 78 78 WNW 8 13 30.24 1024 10 16.0934 0 0
8:15 am 08:15 Sunny 32 0 26 -3.4 78 78 NW 7 11 30.24 1024 10 16.0934 0 0
8:35 am 08:35 Sunny 33 0.8 26 -3.1 75 75 NW 9 15 30.27 1025 10 16.0934 0 0
8:55 am 08:55 Sunny 34 1.2 27 -3 74 74 NW 8 13 30.27 1025 10 16.0934 0 0
9:15 am 09:15 Sunny 36 2.1 27 -2.6 71 71 NW 12 19 30.24 1024 10 16.0934 0 0
9:35 am 09:35 Sunny 39 3.7 28 -2.1 66 66 NW 10 17 30.24 1024 10 16.0934 0 0
9:55 am 09:55 Sunny 41 5 28 -2 61 61 NW 12 19 30.24 1024 10 16.0934 0 0
10:15 am 10:15 Sunny 43 5.9 29 -1.7 59 59 NW 12 19 30.24 1024 10 16.0934 0 0
10:35 am 10:35 Sunny 45 7.2 29 -1.6 54 54 NNW 12 19 30.24 1024 10 16.0934 0 0
10:55 am 10:55 Sunny 47 8.6 29 -1.4 50 50 NNW 12 19 30.21 1023 10 16.0934 0 0
11:15 am 11:15 Sunny 48 8.9 29 -1.4 49 49 NNW 12 19 30.21 1023 10 16.0934 0 0
11:35 am 11:35 Sunny 49 9.3 29 -1.5 47 47 NW 12 19 30.21 1023 10 16.0934 0 0
11:55 am 11:55 Sunny 50 10 30 -1.3 46 46 NW 12 19 30.21 1023 10 16.0934 0 0
12:15 pm 12:15 Sunny 52 11.3 29 -1.6 41 41 NW 14 22 30.18 1022 10 16.0934 0 0
12:35 pm 12:35 Sunny 54 12 29 -1.5 39 39 NW 13 20 30.18 1022 10 16.0934 0 0
12:55 pm 12:55 Sunny 54 12 29 -1.7 39 39 NW 14 22 30.15 1021 10 16.0934 0 0
1:15 pm 13:15 Sunny 54 12.4 28 -2 37 37 NW 9 15 30.15 1021 10 16.0934 0 0
1:35 pm 13:35 Sunny 57 13.8 28 -2.1 33 33 NW 13 20 30.12 1020 10 16.0934 0 0
1:55 pm 13:55 Sunny 57 14.1 28 -2.2 33 33 NW 13 20 30.09 1019 10 16.0934 0 0
2:15 pm 14:15 Sunny 57 13.7 28 -2.3 33 33 NW 9 15 30.09 1019 10 16.0934 0 0
2:35 pm 14:35 Sunny 58 14.4 28 -2.4 32 32 NW 12 19 30.09 1019 10 16.0934 0 0
2:55 pm 14:55 Sunny 58 14.6 27 -2.6 31 31 NNW 13 20 30.09 1019 10 16.0934 0 0
3:15 pm 15:15 Sunny 58 14.7 28 -2.5 31 31 NW 13 20 30.09 1019 10 16.0934 0 0
3:35 pm 15:35 Sunny 59 14.9 27 -2.6 30 30 NW 13 20 30.09 1019 10 16.0934 0 0
3:55 pm 15:55 Sunny 59 14.8 27 -2.9 30 30 NW 12 19 30.09 1019 10 16.0934 0 0
4:15 pm 16:15 Sunny 59 15 27 -2.7 30 30 NW 12 19 30.09 1019 10 16.0934 0 0
4:35 pm 16:35 Sunny 58 14.7 26 -3.1 29 29 NNW 9 15 30.09 1019 10 16.0934 0 0
4:55 pm 16:55 Sunny 58 14.5 27 -3 30 30 NW 6 9 30.09 1019 10 16.0934 0 0
5:15 pm 17:15 Sunny 57 14.1 28 -2.5 32 32 NW 6 9 30.09 1019 10 16.0934 0 0
5:35 pm 17:35 Sunny 56 13.3 27 -2.7 33 33 NW 5 7 30.12 1020 10 16.0934 0 0
5:55 pm 17:55 Sunny 54 12 27 -2.7 36 36 NW 3 6 30.12 1020 10 16.0934 0 0
6:15 pm 18:15 Clear 50 10.2 27 -2.7 41 41 Calm 30.15 1021 10 16.0934 0 0
6:35 pm 18:35 Clear 48 8.8 27 -3 44 44 WSW 3 6 30.15 1021 10 16.0934 0 0
6:55 pm 18:55 Clear 47 8.3 27 -2.8 46 46 Calm 30.15 1021 10 16.0934 0 0
7:15 pm 19:15 Clear 46 7.5 27 -2.9 48 48 SW 5 7 30.15 1021 10 16.0934 0 0
7:35 pm 19:35 Clear 44 6.5 27 -3 51 51 SW 3 6 30.18 1022 10 16.0934 0 0
7:55 pm 19:55 Clear 43 5.9 26 -3.1 53 53 SW 3 6 30.18 1022 10 16.0934 0 0
8:15 pm 20:15 Clear 42 5.5 26 -3.4 53 53 Calm 30.18 1022 10 16.0934 0 0
8:35 pm 20:35 Clear 41 5 26 -3.3 55 55 WSW 5 7 30.18 1022 10 16.0934 0 0
8:55 pm 20:55 Clear 41 5.2 27 -2.6 57 57 WSW 5 7 30.18 1022 10 16.0934 0 0
9:15 pm 21:15 Clear 43 6 28 -2.3 56 56 WSW 7 11 30.18 1022 10 16.0934 0 0
9:35 pm 21:35 Clear 46 8 28 -2.3 49 49 SW 9 15 30.15 1021 10 16.0934 0 0
9:55 pm 21:55 Clear 45 7.2 28 -2.5 50 50 SW 9 15 30.18 1022 10 16.0934 0 0
10:15 pm 22:15 Clear 46 7.5 28 -2.3 50 50 WSW 8 13 30.15 1021 10 16.0934 0 0
10:35 pm 22:35 Clear 44 6.4 28 -2.5 53 53 SW 7 11 30.18 1022 10 16.0934 0 0
10:55 pm 22:55 Clear 44 6.9 28 -2.2 53 53 WSW 8 13 30.18 1022 10 16.0934 0 0
11:15 pm 23:15 Clear 44 6.7 28 -2.2 53 53 WSW 10 17 30.12 1020 10 16.0934 0 0
11:35 pm 23:35 Clear 45 7 28 -2.1 53 53 WSW 13 20 30.12 1020 10 16.0934 0 0
11:55 pm 23:55 Clear 45 7.3 28 -2.1 52 52 WSW 13 20 30.12 1020 10 16.0934 0 0

Powered by AerisWeather